Theta_e
332 336 341 346 351 353 354 354 355 354 354 353 353 353 353 352 352 351 351 350 350 350 349 348 348 348 348 348 347 347 348 348 349 349 349 348 348 348 348 348 349 351 351 351 351 349 347 347 346 345 345 345 344 344 344 344 344 344 345 345 346 347 348 348 347 347 347 348 351 350 349 350 350 351 351 350 350 349 349 349 348 346 346 349 352
333 336 341 343 350 353 354 354 354 354 354 354 354 353 353 352 352 352 350 350 350 349 349 348 348 348 348 346 347 347 347 348 348 349 349 348 347 347 347 348 349 350 350 350 351 349 347 346 345 345 345 344 343 342 342 341 341 341 341 342 343 343 345 345 343 343 345 345 347 349 349 349 350 350 348 348 349 349 348 350 349 345 344 350 352
334 337 341 343 349 352 354 354 354 354 354 354 354 353 353 353 352 351 350 350 349 349 349 348 347 348 347 347 347 347 347 348 348 348 348 348 348 347 347 347 347 348 350 349 349 350 349 347 346 345 344 343 342 342 341 340 339 339 339 339 339 340 341 342 341 341 341 342 344 345 344 348 348 346 348 348 348 348 348 349 349 348 347 351 350
334 337 341 343 346 348 352 353 354 354 354 354 353 354 353 352 352 351 350 349 349 349 348 348 348 347 347 346 346 347 347 347 348 347 348 347 347 347 347 347 348 348 349 349 349 349 348 347 346 344 342 342 341 341 339 339 338 337 336 336 336 337 338 338 337 338 341 340 340 341 341 335 341 347 345 346 347 347 348 348 348 349 350 349 349
334 336 341 343 345 347 350 352 354 354 354 354 353 353 352 352 351 350 350 349 349 348 348 347 347 347 347 346 346 346 348 348 348 348 347 347 347 347 347 347 346 348 348 349 348 347 348 346 344 343 341 340 339 339 338 336 335 334 333 333 334 334 335 334 335 337 339 337 338 337 335 336 337 346 347 346 345 346 347 347 347 348 348 349 349
334 337 341 343 344 345 348 350 354 354 354 354 354 353 352 351 351 350 350 349 348 348 348 347 347 348 347 347 347 347 348 347 347 347 347 347 347 347 346 347 347 348 347 347 347 347 346 345 344 343 340 338 337 336 336 334 333 331 330 329 331 332 332 333 335 337 338 335 336 333 336 337 337 341 346 347 345 344 344 344 345 346 347 347 347
334 337 341 343 344 344 346 350 354 354 354 353 353 353 352 351 351 350 350 349 348 347 347 347 347 347 347 346 347 348 348 347 347 347 347 346 346 346 346 346 347 347 347 347 346 345 345 344 342 342 339 337 336 334 334 333 331 328 327 328 329 331 332 334 336 336 334 330 329 334 337 337 336 339 345 345 346 346 345 345 345 345 346 345 345
334 337 341 342 343 344 345 350 352 353 353 354 353 353 352 351 351 350 349 348 347 347 347 347 347 347 348 347 347 348 347 347 348 347 346 346 346 346 345 346 347 346 346 346 345 344 343 342 341 341 338 336 334 333 331 330 329 326 326 326 330 332 334 335 335 334 334 326 330 337 340 337 335 337 345 345 345 345 345 346 345 344 344 343 342
334 337 340 342 342 343 345 347 352 353 353 353 353 353 352 351 351 350 349 348 347 346 346 347 348 348 348 348 348 348 348 348 348 347 345 346 346 345 346 347 346 345 345 345 344 343 341 340 339 339 337 335 333 331 329 328 327 326 325 329 331 334 334 334 333 331 327 326 330 334 336 335 333 334 343 344 345 344 346 346 345 345 343 342 341
334 337 339 341 342 341 344 346 352 352 352 353 352 352 352 350 350 349 348 348 347 346 346 347 348 347 348 347 348 348 348 348 348 347 345 345 345 345 346 346 345 345 344 343 342 340 340 339 338 336 336 333 331 329 327 326 326 326 328 331 333 334 334 332 330 329 324 327 331 334 338 341 334 335 341 344 345 345 344 341 342 342 341 341 341
333 336 338 340 340 341 344 348 350 350 351 352 352 352 351 350 350 349 348 348 347 346 346 347 348 347 348 347 347 348 348 348 347 346 345 345 345 345 345 346 345 344 342 341 341 339 338 337 336 335 335 332 329 327 326 325 325 326 330 331 332 333 333 330 326 320 323 326 329 331 338 342 331 334 343 344 343 344 343 342 343 342 342 341 341
333 335 337 339 338 340 344 346 348 351 351 351 352 352 351 350 350 349 348 347 346 346 346 347 348 347 347 348 348 348 348 348 348 346 345 345 345 345 345 345 344 343 342 339 339 337 336 334 334 334 333 330 328 327 325 324 324 327 329 330 331 332 330 328 321 320 321 323 325 327 325 326 333 340 344 344 344 344 343 343 342 342 342 342 341
332 334 336 336 338 339 342 346 346 349 350 351 352 352 351 350 349 349 348 347 347 347 347 347 347 347 347 347 348 348 348 347 348 346 345 345 344 345 345 344 343 343 341 340 338 335 334 334 335 336 332 329 327 325 323 322 323 326 328 330 331 331 328 325 318 319 319 321 322 322 324 324 325 341 340 341 342 342 341 341 341 341 341 341 340
330 333 334 335 337 336 339 342 344 347 349 350 351 351 351 350 348 349 347 347 347 347 347 347 347 348 347 347 348 348 348 348 347 346 345 344 344 344 344 343 342 342 340 338 337 335 334 339 337 334 331 328 326 324 323 322 323 324 326 329 330 328 325 323 322 317 318 318 321 320 320 324 329 341 337 337 338 338 338 339 339 338 338 338 338
331 330 332 333 335 337 335 339 342 343 346 348 349 350 350 350 349 348 347 347 347 347 347 347 348 347 347 348 348 348 347 347 346 346 345 344 343 343 342 343 342 342 340 338 336 333 332 337 336 333 330 327 325 323 321 321 322 323 326 328 327 325 322 314 316 314 317 319 317 319 320 322 337 335 335 335 335 335 335 335 336 336 337 336 336
327 330 330 332 332 334 336 336 338 338 342 344 346 347 348 349 348 348 347 347 347 347 348 347 348 348 348 349 348 348 347 346 345 345 345 344 343 343 342 342 341 341 339 338 336 333 332 334 335 331 328 326 324 321 320 319 320 322 324 325 325 323 320 317 313 313 314 316 317 319 319 321 337 333 332 332 333 333 333 333 333 334 335 334 334
325 326 330 331 331 334 336 337 337 334 336 337 340 342 344 346 347 348 347 347 347 347 348 348 348 348 348 349 348 347 346 346 345 345 345 344 343 342 342 341 341 340 339 339 336 334 333 334 332 330 328 326 323 322 320 318 320 321 323 323 323 321 319 316 313 310 313 315 316 318 319 322 334 332 332 332 331 331 330 331 331 333 333 332 332
321 326 330 330 331 333 335 337 338 337 339 335 334 338 341 344 345 345 345 345 345 346 347 347 347 346 346 345 343 343 344 344 344 344 344 344 342 340 341 340 339 338 337 336 334 331 331 334 332 330 328 326 323 321 318 318 318 320 320 321 322 321 319 316 310 310 314 317 313 316 318 330 333 331 331 330 330 330 329 329 330 330 331 330 329
319 325 328 329 331 332 334 336 336 338 339 339 339 338 335 339 342 342 342 343 344 344 344 343 342 343 343 341 338 337 336 338 340 341 341 340 337 333 338 340 337 335 333 333 332 332 335 333 331 330 328 325 323 319 317 317 318 318 318 318 318 316 315 312 307 309 310 313 312 314 316 331 330 331 330 330 330 329 329 329 328 327 325 327 328
317 322 326 327 329 331 333 335 336 338 339 340 340 340 334 332 336 339 339 341 341 341 340 338 336 336 336 335 332 332 331 334 330 335 333 337 335 329 333 336 337 334 333 332 332 335 334 332 331 329 327 325 322 319 315 316 316 317 317 316 314 312 306 306 305 306 308 312 313 313 325 330 329 330 330 329 329 328 327 327 327 327 327 326 321
317 319 324 327 327 329 331 333 335 337 339 341 341 341 339 331 331 332 334 336 338 337 337 333 328 328 329 327 326 334 334 336 334 336 327 333 326 325 330 335 337 337 336 336 332 334 333 332 330 329 327 325 321 317 315 315 314 315 315 313 309 304 303 305 306 307 306 307 310 311 330 327 328 329 327 327 326 325 326 328 326 325 326 327 326
318 319 319 324 330 331 331 332 333 336 338 340 341 341 340 334 338 338 337 336 332 330 333 334 329 330 326 331 333 332 330 331 333 331 332 330 326 323 327 333 336 334 334 335 334 334 333 331 330 328 327 323 318 299 300 312 314 314 311 306 299 300 300 302 303 304 305 306 308 319 329 326 326 326 325 326 326 328 327 327 326 325 324 324 326
317 317 319 322 328 333 333 333 332 333 337 338 339 340 340 339 339 339 338 332 334 332 335 332 332 332 330 334 332 332 333 330 331 329 328 323 325 321 326 330 333 330 332 333 334 333 332 331 329 327 325 318 301 294 292 290 293 307 303 296 296 298 298 299 300 302 301 304 303 321 328 325 325 325 326 326 326 326 326 326 325 324 325 325 324
316 317 320 318 324 330 332 334 334 333 336 337 338 339 339 339 339 339 339 338 337 336 336 335 334 335 334 334 333 332 332 332 326 322 322 324 323 320 324 326 328 326 327 328 330 331 332 330 328 326 315 302 294 295 291 289 289 291 293 293 294 296 298 299 300 298 298 304 302 320 326 328 325 325 326 326 326 327 326 325 326 325 325 325 325
311 315 316 318 319 323 328 331 333 333 335 336 336 337 338 337 338 339 338 339 337 336 336 335 335 335 335 335 333 331 330 329 327 325 324 323 321 321 322 321 319 317 321 316 316 317 319 315 313 309 299 298 295 293 291 290 292 293 293 293 293 294 296 298 298 297 298 298 303 319 322 326 328 327 326 327 326 325 326 325 324 324 324 323 324
306 310 314 316 318 320 322 327 330 332 334 336 336 337 336 337 336 337 337 337 338 337 336 336 336 336 335 334 331 330 328 327 325 324 323 322 321 320 320 315 314 315 315 315 312 311 310 310 309 304 299 295 293 292 292 292 290 291 293 293 293 294 295 296 297 297 297 298 302 317 320 324 327 327 327 327 324 325 326 325 324 324 323 324 323
303 307 310 311 314 318 320 320 327 330 331 334 335 335 336 337 337 336 336 336 336 336 336 336 335 335 334 332 331 329 327 325 323 322 322 321 321 320 318 315 315 313 312 314 311 308 309 307 306 304 297 296 295 294 292 292 290 291 293 293 293 293 294 295 295 296 296 298 305 315 318 322 326 328 327 326 325 325 325 324 325 324 324 324 324
297 299 302 308 311 315 320 322 324 326 328 331 333 334 334 335 335 332 335 333 334 334 334 334 334 334 332 331 330 329 326 323 323 321 321 319 320 319 318 316 314 312 310 310 311 306 306 306 304 299 298 296 296 295 293 293 291 291 293 293 293 292 292 294 294 295 295 294 297 306 316 321 323 324 326 327 326 325 325 325 325 324 325 324 323
298 299 299 300 304 312 317 322 323 324 325 328 331 332 332 333 333 333 334 332 334 334 334 333 332 330 330 330 329 328 326 325 322 321 319 318 317 317 316 316 314 312 309 309 309 307 306 305 305 303 298 297 295 295 293 293 291 291 292 293 292 292 292 293 294 294 294 293 294 299 314 319 322 323 324 326 326 327 325 326 325 326 324 324 324
298 299 300 301 302 307 315 320 323 324 323 325 329 330 330 331 332 333 334 332 333 333 331 331 332 330 328 328 327 328 326 325 323 321 319 318 317 315 315 315 315 312 311 311 307 308 307 303 303 301 299 296 295 293 295 293 292 292 291 292 292 292 291 292 293 293 293 294 294 297 311 316 320 323 323 324 326 327 327 326 325 326 325 324 323
298 299 301 302 305 306 312 315 319 318 320 323 324 327 327 329 330 331 332 332 333 332 331 331 330 329 329 327 326 325 325 323 323 321 319 318 316 315 315 314 313 312 311 311 307 309 306 307 306 304 302 298 296 293 294 292 292 292 291 292 292 291 291 291 293 294 294 294 294 295 299 312 317 320 322 322 324 326 327 327 326 327 326 325 324
298 299 300 302 305 308 310 314 317 318 318 319 318 321 322 322 324 327 329 330 328 330 330 330 328 329 327 327 325 325 324 322 321 320 319 318 316 315 315 314 314 312 311 310 308 306 307 305 303 301 300 298 295 293 292 292 291 292 290 291 290 291 291 291 292 293 294 294 293 294 295 301 311 316 319 324 323 323 324 325 326 326 325 325 325
298 299 300 302 303 307 311 313 314 315 317 318 318 320 318 317 319 321 324 325 327 328 328 328 329 328 327 327 326 325 323 323 321 320 319 318 317 316 314 314 315 314 311 308 307 306 304 302 300 299 298 296 295 294 292 291 290 291 290 292 290 291 290 290 292 293 294 294 294 293 294 297 297 308 312 317 323 324 325 325 325 325 326 326 326
297 299 300 301 303 305 310 312 312 314 313 315 316 316 315 315 315 316 317 320 323 325 325 326 326 326 326 325 325 324 322 322 321 319 319 318 317 316 315 314 314 312 310 308 308 305 305 303 301 300 300 298 297 295 293 292 291 289 290 290 289 291 289 290 290 293 293 294 295 293 296 295 296 297 298 309 314 320 323 324 324 324 324 324 325
297 297 298 299 301 303 307 311 311 311 311 312 313 314 313 316 315 316 316 318 318 321 320 321 321 323 322 322 322 322 321 320 319 319 317 316 315 314 314 314 312 310 310 308 308 305 305 304 300 302 295 295 294 294 292 293 291 292 291 290 291 290 289 291 289 290 292 295 293 294 296 296 296 296 298 296 304 309 316 321 323 323 323 323 323
295 296 297 299 300 301 303 305 308 310 311 311 311 312 313 314 316 314 317 316 317 317 317 319 320 318 319 318 318 318 318 317 316 316 316 314 314 313 313 310 309 309 309 307 307 306 304 303 299 302 298 296 293 294 290 291 289 290 289 289 289 290 289 289 290 290 292 291 295 294 295 296 296 296 299 296 297 300 310 316 319 320 320 321 322
295 295 296 297 298 299 300 301 303 306 309 311 312 313 314 314 314 315 315 315 315 315 315 315 316 316 316 317 316 316 317 318 319 318 318 315 313 312 310 309 307 309 308 307 307 306 304 303 297 298 302 301 294 293 290 290 290 289 288 288 288 289 288 290 289 290 291 290 291 294 294 295 294 300 295 294 295 294 303 311 314 315 315 318 320
294 294 295 296 296 297 298 299 299 302 305 307 310 311 313 313 313 313 312 313 313 314 314 314 314 314 314 314 314 315 315 315 315 314 315 316 314 313 309 309 308 309 308 307 308 303 302 303 301 295 296 298 295 294 293 290 289 290 288 288 288 287 287 288 289 292 290 290 290 293 295 294 294 295 294 294 293 294 294 303 310 310 308 313 318
293 293 294 294 295 296 297 297 298 299 302 304 306 308 309 310 310 310 311 312 312 312 312 312 312 312 313 313 314 314 312 313 313 313 313 313 313 312 311 309 309 309 308 306 304 302 301 301 303 297 292 294 295 293 293 291 290 288 288 288 286 286 287 287 289 289 289 289 290 292 291 294 294 294 294 292 292 292 295 295 294 293 294 308 315
292 292 293 293 293 294 295 295 296 297 299 301 303 305 306 305 305 307 306 308 309 308 309 309 309 309 309 310 311 311 311 311 312 312 311 310 310 309 309 307 307 307 306 305 304 303 303 300 300 300 295 293 291 290 289 289 288 287 287 288 285 286 287 287 287 288 289 289 289 289 290 292 292 294 292 293 293 293 293 293 293 293 294 300 310
291 291 291 291 292 292 293 292 294 295 297 297 298 299 300 302 303 302 301 303 303 304 304 305 305 304 305 306 307 308 308 308 309 310 310 308 308 307 307 306 306 305 305 304 304 303 303 303 301 298 297 293 292 290 290 290 289 288 285 286 287 286 288 288 287 287 288 288 287 288 289 290 290 291 293 292 291 291 292 293 293 293 293 293 298
289 290 290 290 291 291 291 292 293 293 294 295 296 297 296 296 297 297 297 298 299 298 297 299 300 300 300 300 301 303 304 304 305 307 307 307 307 306 305 305 305 305 304 302 301 299 298 297 295 294 293 295 295 291 291 292 288 287 287 284 282 285 288 287 287 288 288 287 288 289 289 289 289 289 289 290 290 290 291 292 291 292 292 292 294
288 288 289 289 289 290 290 291 291 292 292 294 295 295 295 296 296 295 295 294 295 295 294 294 295 295 295 295 295 297 299 299 300 301 302 303 304 304 303 303 304 304 304 303 302 301 299 296 295 297 294 291 291 291 292 293 292 287 286 286 282 283 284 284 286 288 288 287 287 288 289 289 289 289 288 288 289 289 289 289 289 290 290 290 290
287 287 288 288 289 289 289 290 290 291 291 292 293 294 294 294 295 295 294 294 292 293 293 293 293 293 292 292 292 292 293 294 295 295 297 298 299 300 302 301 301 301 302 302 301 300 299 298 298 297 296 295 291 291 292 292 291 290 290 289 285 282 283 283 282 284 285 288 287 288 288 289 289 287 286 287 288 288 288 287 287 288 288 288 288
286 286 286 287 288 287 288 289 289 289 290 291 291 292 293 293 293 293 293 292 292 291 290 290 290 290 291 290 290 291 291 291 291 291 292 293 294 295 297 298 298 299 299 299 299 299 299 298 297 296 296 298 297 294 293 292 291 292 293 285 286 286 284 283 280 283 281 285 286 287 287 288 288 288 287 287 287 287 287 287 287 286 287 287 287
285 285 286 286 286 287 287 288 288 289 289 289 290 291 290 290 289 289 288 288 287 287 287 286 287 288 288 289 289 290 290 290 290 290 290 290 290 291 292 294 295 296 296 297 297 297 297 298 297 296 295 295 294 294 292 292 292 292 291 290 291 290 286 284 284 285 280 283 284 283 286 286 285 287 287 287 287 287 287 287 287 287 287 287 287
284 285 286 286 286 286 286 287 287 287 288 288 289 290 289 289 288 287 287 286 286 286 286 287 287 287 288 288 288 288 288 288 288 288 289 289 289 290 290 291 292 292 293 295 295 295 296 296 297 296 295 296 294 292 293 294 292 291 292 292 289 287 287 287 287 284 286 282 281 282 285 284 285 286 287 287 288 287 287 287 287 287 287 287 287
284 284 285 285 285 285 285 286 286 286 287 287 288 288 287 287 287 286 286 286 285 285 285 286 286 287 286 286 286 286 287 287 287 287 288 288 288 288 289 289 290 290 291 291 292 292 294 295 295 295 295 294 294 293 293 293 292 292 292 291 291 290 287 287 287 287 286 284 285 282 281 283 284 285 286 287 287 288 288 287 287 287 287 286 286
284 284 284 284 285 285 285 285 285 285 285 286 286 286 287 286 285 285 284 285 285 285 284 285 284 284 284 284 284 285 285 286 286 286 286 286 287 287 287 288 288 289 289 290 290 290 290 291 292 293 293 293 294 293 292 292 292 292 291 290 290 290 289 288 287 286 285 285 286 285 285 281 282 283 285 286 287 287 288 288 288 287 287 287 287
283 284 283 284 284 284 284 284 284 284 284 284 285 285 285 285 284 283 283 283 283 283 283 283 283 283 282 282 283 283 283 284 284 285 285 285 285 286 286 286 287 287 288 288 288 289 289 289 290 289 290 290 291 292 292 292 292 292 291 291 290 288 288 288 287 285 286 286 284 285 286 284 285 285 285 286 287 287 288 288 287 287 287 287 287
282 282 283 283 283 283 283 283 283 283 283 283 283 283 284 284 283 283 282 282 282 282 282 282 282 282 281 281 282 282 283 283 283 283 284 284 284 285 285 285 285 286 286 287 287 288 288 288 289 289 289 289 289 289 290 291 292 292 291 291 290 290 289 288 288 287 286 285 285 285 285 286 285 286 285 285 287 287 287 286 286 287 287 287 287
Wind_Speed
6 8 7 11 12 14 15 16 15 15 14 14 14 13 12 11 11 10 9 9 9 9 9 9 9 9 9 10 10 10 11 10 10 10 9 8 9 8 8 8 7 7 9 12 11 13 11 11 11 11 11 11 11 11 11 11 11 11 11 10 11 11 12 12 12 12 12 11 11 10 9 9 10 11 11 10 10 10 9 8 7 5 4 6 10
11 9 8 7 12 13 15 16 16 15 14 14 14 14 13 12 11 10 9 9 8 8 8 8 9 9 8 9 9 9 10 10 9 9 8 8 7 7 7 7 6 7 8 11 11 11 12 11 11 11 11 11 11 11 11 11 11 11 11 11 11 11 11 11 11 10 10 10 10 10 9 10 10 11 10 10 10 10 9 7 8 5 3 10 11
9 9 9 9 12 12 13 15 16 16 15 15 14 13 13 11 11 11 9 9 9 9 8 8 8 8 8 9 9 9 9 9 9 8 8 7 7 7 6 6 6 6 8 10 11 12 12 12 11 11 11 11 11 11 11 11 11 11 11 11 11 11 10 10 9 9 9 8 8 8 9 8 10 9 9 10 10 9 7 5 8 10 7 13 11
12 9 9 10 12 12 12 13 14 15 14 13 13 11 11 11 12 11 10 10 10 9 9 8 8 8 8 8 9 9 9 9 9 8 7 7 7 6 6 6 5 6 8 9 10 12 13 12 12 11 11 11 11 11 11 11 11 11 11 11 11 10 10 10 9 8 8 7 6 6 3 4 4 9 9 9 10 10 9 9 8 12 13 12 12
11 9 9 9 9 10 12 12 14 13 14 14 13 13 12 12 12 11 10 10 10 10 9 9 9 8 8 8 8 9 9 9 9 8 8 7 7 6 6 5 4 5 6 10 10 10 12 13 12 11 11 11 11 11 11 11 11 11 11 10 10 9 9 9 9 8 7 6 5 5 3 3 3 6 9 10 10 10 8 9 11 13 13 13 14
8 8 9 9 9 9 13 12 13 13 13 13 13 13 13 13 12 12 11 11 10 10 10 10 10 10 9 9 9 9 9 9 8 8 8 7 7 7 5 4 4 7 8 9 10 11 12 12 12 11 10 10 10 11 11 11 10 10 10 9 9 9 8 8 7 7 6 5 4 3 3 3 3 2 7 8 10 9 8 9 10 11 12 14 14
9 8 9 9 8 9 13 13 14 13 14 14 12 12 13 13 13 12 12 11 11 10 11 10 11 10 10 10 10 9 9 9 9 8 8 7 7 6 5 4 5 6 8 8 9 9 11 11 10 9 9 9 10 10 10 10 9 9 9 8 8 8 7 7 6 7 6 3 4 3 4 3 3 3 5 7 8 9 9 9 10 10 12 12 13
5 7 8 9 8 10 14 14 14 14 16 13 12 12 13 13 12 12 11 11 11 11 11 11 11 11 11 11 10 10 9 9 9 8 8 7 7 6 6 6 6 7 7 8 8 9 10 9 9 8 7 8 9 9 9 9 9 8 8 8 8 8 7 6 7 7 6 3 3 4 4 3 3 3 4 5 7 8 9 10 10 10 11 12 10
7 7 8 9 8 12 13 13 15 14 16 14 13 12 13 13 11 11 11 11 11 11 11 11 11 11 11 10 10 9 9 9 9 8 7 7 7 6 7 9 7 7 7 8 8 8 7 7 7 7 7 8 8 9 9 8 8 8 7 8 8 8 7 6 7 6 4 3 3 4 3 3 2 2 3 5 7 8 9 9 10 11 10 10 9
5 6 7 8 8 13 13 13 15 14 17 15 13 13 14 14 12 12 11 11 11 11 11 11 11 11 11 10 10 10 9 9 9 8 7 6 6 7 8 9 9 8 7 7 6 5 6 7 6 4 6 7 8 8 8 7 7 7 7 8 9 9 8 8 8 6 4 3 3 3 3 4 3 2 4 6 8 10 10 9 7 6 6 8 9
6 6 7 7 8 13 15 15 14 14 16 15 13 14 15 15 13 14 13 13 12 12 12 12 11 11 11 10 10 10 10 9 9 9 8 7 6 7 7 8 8 7 5 5 6 4 5 6 4 4 6 7 8 8 8 7 7 7 7 8 9 9 9 8 7 4 4 4 4 4 4 4 2 1 6 7 8 10 9 6 6 8 8 8 9
6 5 6 6 9 13 15 15 14 15 15 14 14 13 16 16 14 14 14 14 13 13 13 13 12 11 11 11 10 11 11 10 10 9 9 8 7 8 8 8 7 5 4 2 3 2 2 3 4 5 7 7 8 8 7 7 6 7 7 8 9 9 8 8 6 5 4 5 5 3 3 1 1 5 9 8 8 8 8 8 8 8 9 9 8
6 5 5 5 6 12 14 15 14 14 15 14 15 15 16 16 15 14 15 14 15 15 14 13 12 11 11 11 11 10 10 11 11 10 9 9 8 8 9 8 7 7 4 4 1 2 3 4 6 10 7 7 7 7 6 6 6 7 7 9 9 9 9 8 4 5 4 4 4 3 3 2 1 2 7 7 8 7 7 8 8 8 9 9 8
6 6 5 5 6 10 14 14 14 14 15 14 15 16 15 15 16 15 16 15 15 14 14 14 13 12 12 12 11 10 11 12 12 12 10 9 8 9 8 7 7 6 4 4 5 3 5 12 11 10 8 7 6 6 5 5 6 7 7 8 9 8 8 6 5 4 4 4 3 3 3 2 1 3 5 6 5 5 6 6 7 8 8 9 9
7 6 5 4 4 6 12 13 14 14 15 14 15 15 16 15 16 16 17 15 15 14 14 14 12 13 12 11 12 11 11 11 11 11 12 10 9 8 7 7 7 6 5 4 3 1 2 9 10 10 9 7 6 4 4 4 5 6 8 8 8 7 7 4 4 4 4 4 3 4 4 3 4 5 6 5 4 4 4 3 4 5 5 5 7
3 6 5 4 4 4 7 10 13 13 14 13 14 15 15 14 15 15 15 15 15 15 13 13 13 11 11 10 10 11 11 12 13 12 12 11 11 9 8 7 7 6 5 6 3 2 2 5 12 11 9 7 4 4 3 3 5 6 8 8 7 7 7 5 4 4 4 4 4 4 4 4 3 4 3 4 4 2 3 2 2 2 3 4 6
3 4 5 6 5 5 7 7 9 12 13 12 13 14 14 14 14 15 14 14 14 13 12 12 12 11 10 9 9 8 9 11 12 13 11 11 13 11 8 8 7 6 6 8 6 5 6 8 11 11 9 7 5 3 3 4 5 6 7 7 7 7 6 5 5 3 4 3 3 4 5 4 4 4 4 5 3 2 2 1 1 1 2 2 3
4 5 6 6 6 6 7 7 8 8 8 9 12 14 14 14 14 14 14 13 13 12 12 11 10 10 9 8 7 7 8 10 11 10 10 10 10 10 9 8 7 6 5 6 6 2 4 13 10 10 10 7 5 4 3 5 5 5 7 7 7 7 6 6 4 3 4 4 4 3 4 5 4 3 3 3 3 3 1 2 2 2 2 2 2
3 4 4 5 7 6 7 7 7 7 8 7 6 9 13 13 13 14 13 12 12 12 11 10 9 8 8 7 7 8 8 9 9 9 9 9 8 8 8 7 6 6 4 3 3 3 11 9 9 9 8 8 5 4 4 5 5 6 7 6 6 7 6 5 3 4 3 3 3 3 3 3 3 3 3 3 3 3 2 1 2 1 1 1 1
2 4 5 5 5 6 6 7 7 8 8 7 7 7 10 12 11 12 12 11 11 11 10 9 9 8 7 7 8 7 8 7 9 8 9 9 8 6 7 6 6 6 5 5 4 10 9 9 8 9 8 7 5 4 3 5 5 6 6 6 6 6 4 4 3 3 3 3 2 3 4 2 2 2 3 2 3 2 2 1 2 1 1 1 0
2 4 4 5 5 6 7 7 8 8 8 8 7 7 8 10 9 10 11 11 10 10 10 9 8 7 6 7 7 5 4 5 7 6 7 6 8 8 8 7 6 5 5 4 6 10 9 8 8 8 8 7 5 4 2 4 4 5 6 6 6 5 3 4 4 3 2 2 2 3 5 2 2 3 2 2 2 2 2 2 2 3 2 3 3
5 4 4 4 6 6 7 7 6 9 8 7 7 6 6 9 8 6 7 8 8 8 7 5 5 4 5 5 4 3 3 3 5 6 5 6 7 9 9 8 8 7 6 5 6 10 9 8 8 8 7 7 6 2 2 4 4 5 6 6 4 3 3 3 3 3 2 2 2 3 5 1 2 2 3 3 2 2 3 2 1 1 1 1 2
6 4 5 5 6 5 5 7 7 7 8 7 6 6 6 6 7 7 6 7 7 7 5 5 4 4 3 4 4 3 3 3 4 4 4 7 8 9 9 8 8 8 7 6 6 9 9 8 8 7 7 7 3 2 1 1 1 4 4 3 4 3 3 3 3 3 2 1 2 4 4 0 3 3 3 3 3 3 3 3 3 2 2 2 2
6 5 6 4 4 6 7 7 7 6 7 6 5 5 4 4 5 5 5 5 5 5 5 5 5 5 5 4 4 4 3 3 4 7 6 5 6 8 9 9 8 8 8 5 5 5 8 9 9 9 6 3 2 1 1 0 1 1 2 3 3 3 3 3 3 2 2 1 1 3 4 3 2 4 4 4 4 4 4 4 4 3 3 4 3
5 5 5 3 3 4 4 6 6 6 7 6 6 5 4 4 4 5 5 5 5 4 5 5 5 5 5 4 4 3 3 2 4 4 4 4 4 4 3 2 3 3 5 4 2 1 2 4 5 6 4 3 2 1 1 1 0 1 2 2 2 2 2 1 2 2 1 1 0 2 3 3 2 4 5 5 5 5 5 4 4 4 3 3 4
5 5 5 4 4 4 4 3 4 6 8 7 7 6 5 5 4 5 5 4 6 6 4 4 5 6 5 5 5 5 4 4 3 4 4 4 5 4 4 2 2 4 2 4 2 2 3 4 5 5 3 3 2 1 1 1 2 0 1 1 1 2 1 1 1 1 1 0 0 2 3 4 4 4 7 6 6 6 7 6 5 3 3 4 4
7 6 4 4 4 4 4 4 6 6 7 6 5 5 6 5 4 4 4 4 4 5 7 6 5 5 5 5 5 5 4 4 4 4 5 4 4 4 4 3 4 3 2 4 3 2 4 4 5 4 3 3 1 0 1 1 1 1 1 0 0 1 1 1 1 1 1 1 1 2 3 4 5 5 6 7 8 8 7 6 8 6 6 6 7
6 7 6 6 5 5 5 6 7 6 6 5 6 6 5 5 5 4 4 4 4 4 4 4 5 6 6 5 5 5 5 5 4 4 4 3 4 3 4 4 3 3 1 2 4 2 4 4 4 3 3 3 2 1 1 2 2 2 1 1 0 0 1 1 1 1 1 1 1 2 3 4 5 7 5 8 7 8 8 8 6 8 8 7 7
10 10 8 7 7 5 5 8 7 7 5 5 6 5 4 5 4 4 5 4 3 3 4 4 3 3 4 6 5 5 4 5 5 4 3 4 2 3 3 4 3 2 2 2 3 3 3 3 4 4 3 3 2 2 2 3 3 3 2 1 1 1 1 1 1 1 1 2 2 2 4 4 5 5 6 6 8 8 9 8 8 9 6 8 8
9 8 8 7 7 7 5 7 7 7 6 6 6 5 5 5 5 5 4 3 4 3 2 2 4 4 3 4 5 5 5 5 5 5 5 5 4 4 4 4 4 3 3 4 4 4 5 3 3 3 3 3 3 2 1 4 4 3 3 3 2 3 2 2 2 2 2 2 2 2 5 4 5 5 5 7 8 8 9 9 10 9 7 8 8
9 10 10 9 8 6 4 3 3 4 4 5 5 5 5 6 5 4 4 5 4 2 2 2 2 3 4 4 4 4 5 5 6 7 6 5 5 5 5 4 4 5 5 5 4 5 5 5 6 6 5 4 4 1 1 3 4 4 3 3 3 2 3 2 2 2 2 3 3 3 2 5 4 5 5 6 7 8 9 9 10 9 9 9 8
11 12 9 9 9 9 6 2 1 4 4 4 4 4 4 3 4 4 5 4 3 4 4 4 4 4 3 4 4 5 5 4 5 3 5 5 5 5 5 5 6 5 5 5 5 4 5 4 3 2 2 3 3 1 0 1 4 4 3 4 3 3 3 3 3 3 3 3 3 3 2 2 4 4 4 5 7 8 9 9 9 10 10 9 9
7 8 10 9 12 10 8 6 2 2 2 1 1 0 1 2 4 3 3 3 4 4 4 4 5 4 4 5 5 5 5 5 5 5 5 5 5 6 5 6 6 6 5 4 5 4 4 3 3 2 2 2 2 1 0 1 3 4 3 4 3 4 3 3 4 3 4 4 4 3 3 2 1 3 4 4 5 3 4 5 6 6 7 7 9
8 8 10 14 10 8 7 7 7 5 4 3 4 3 2 2 2 2 2 4 4 4 5 5 5 5 5 5 6 6 6 5 5 5 6 5 5 5 6 6 6 4 4 5 5 5 5 4 4 4 3 3 4 4 3 4 4 3 4 4 3 4 3 4 5 5 4 4 5 4 5 3 2 2 1 2 3 3 2 3 2 3 4 5 7
9 12 13 10 11 11 9 8 9 8 7 6 4 4 3 4 3 2 1 1 3 4 4 3 3 4 3 5 5 5 6 6 6 7 6 5 5 6 6 7 5 4 5 5 6 5 5 5 5 5 3 3 3 3 4 4 4 5 4 3 5 4 3 4 3 4 4 4 3 4 4 4 4 4 3 3 2 2 2 2 3 3 3 5 6
12 10 9 11 13 12 12 11 11 11 9 7 6 6 6 6 6 5 5 5 5 5 5 5 4 2 1 3 4 4 4 3 3 4 5 5 6 6 7 5 5 5 5 5 5 6 5 4 4 5 5 4 3 5 3 4 4 5 3 3 4 3 4 4 4 4 4 3 4 4 3 4 4 4 4 3 3 3 3 2 2 2 3 4 5
10 12 12 11 13 13 13 14 13 11 10 9 9 8 9 9 9 9 9 9 7 6 5 5 5 4 4 5 6 6 3 2 3 5 5 5 5 6 5 5 5 5 5 5 5 5 5 5 4 4 4 6 5 5 4 4 4 4 3 3 3 2 4 4 4 5 3 4 4 4 4 4 3 4 3 3 3 2 3 3 3 3 3 4 5
10 11 11 11 10 10 11 12 11 10 9 8 8 8 8 9 9 8 9 10 9 8 8 9 8 7 8 7 6 5 5 5 5 5 4 3 2 4 2 4 4 4 5 5 5 3 4 5 6 4 5 4 5 5 6 4 3 4 4 4 4 2 3 4 4 4 5 5 5 5 5 4 4 5 5 4 3 3 3 4 4 3 4 5 6
10 11 12 11 11 11 11 13 13 11 10 9 8 8 8 8 9 10 11 10 9 9 9 10 8 9 9 9 9 8 8 7 6 5 4 5 5 5 3 1 1 3 3 2 2 3 3 4 5 4 3 3 3 4 5 3 4 4 4 4 3 4 4 3 3 4 5 5 5 5 3 5 4 5 5 4 4 4 4 4 3 3 3 5 6
10 11 12 13 13 12 10 12 12 10 9 9 9 8 9 10 10 10 12 10 10 10 10 9 9 10 9 10 10 10 10 9 8 7 6 6 6 6 5 5 4 2 1 3 4 6 8 6 5 5 3 1 0 1 2 2 0 1 4 4 4 4 5 4 4 4 4 4 5 4 5 5 6 6 4 4 5 4 4 4 4 4 4 6 7
12 12 13 14 13 11 12 13 9 11 10 10 10 9 8 7 10 10 8 8 8 9 10 10 11 11 12 12 11 10 10 11 10 9 8 6 5 5 5 5 5 5 5 5 5 5 4 1 1 2 5 4 3 1 1 3 1 3 2 4 6 4 4 3 4 5 6 6 3 5 6 6 7 5 5 4 5 5 5 5 5 4 4 4 6
12 12 13 12 11 11 12 10 10 11 10 8 7 9 7 5 6 6 7 9 10 11 10 11 10 10 13 13 11 11 11 11 10 10 9 9 8 7 6 4 3 3 2 4 5 5 5 4 2 0 0 3 3 2 2 4 0 5 5 5 4 5 6 5 5 7 6 5 5 6 7 6 7 6 4 5 6 5 5 6 4 5 5 5 5
9 11 10 11 12 11 10 9 10 10 10 9 8 7 6 7 9 7 7 7 7 6 7 8 9 11 12 12 12 11 12 11 11 11 10 10 9 8 8 6 6 5 5 5 3 3 2 2 2 4 3 2 1 1 4 6 3 2 1 3 5 5 5 3 4 6 6 6 6 6 7 6 8 6 5 5 6 6 6 4 5 5 5 5 5
10 12 12 12 10 11 10 11 10 10 10 10 8 6 6 5 7 8 10 11 6 7 9 12 12 14 13 12 12 11 11 11 12 11 10 10 10 10 8 8 7 5 5 5 4 4 3 1 1 1 2 3 2 2 2 3 2 3 4 4 2 1 8 4 4 6 5 8 7 9 6 7 7 4 3 6 7 6 6 5 6 6 5 5 5
11 12 11 10 8 11 11 10 10 10 10 10 10 7 9 9 7 9 9 9 12 12 12 12 11 9 11 12 11 11 11 11 11 11 10 10 10 10 9 8 9 8 6 6 6 5 2 0 1 1 2 3 5 2 1 3 5 5 2 1 3 2 5 6 4 6 1 2 5 7 5 6 6 5 4 7 5 6 6 6 7 5 6 6 6
11 9 8 9 9 10 11 11 11 11 11 11 10 11 11 11 12 12 11 10 11 12 11 9 10 11 9 7 11 11 11 11 11 11 11 10 10 10 9 9 9 9 8 6 6 6 6 5 3 3 3 3 5 4 3 2 6 6 4 2 2 6 4 2 3 9 3 4 3 2 5 5 4 4 5 6 7 7 6 7 6 7 7 7 6
8 5 7 9 9 9 9 10 10 9 10 10 10 9 12 11 12 11 10 9 9 7 5 6 7 6 7 11 9 11 12 12 11 11 10 10 9 10 9 8 8 8 8 8 9 8 7 6 5 3 3 4 3 4 6 5 1 4 6 8 5 2 1 3 8 3 11 3 1 3 6 5 5 5 7 9 8 7 7 7 8 8 7 6 6
5 6 8 8 10 9 9 10 9 10 9 9 12 11 11 10 11 11 10 10 10 8 7 7 7 7 11 10 10 10 12 12 12 12 12 11 10 10 10 9 9 8 8 8 8 7 7 7 7 6 4 4 3 4 6 5 5 4 2 7 7 5 3 3 3 7 8 11 11 3 3 6 5 6 7 8 9 9 9 8 9 8 7 7 7
7 8 7 7 6 7 8 10 12 10 9 11 12 12 11 11 10 9 11 8 8 7 5 7 9 8 11 10 10 10 10 11 11 12 12 12 11 10 10 10 10 9 7 8 8 7 8 7 9 8 8 7 5 4 4 5 5 5 6 4 4 5 4 5 3 1 6 8 14 8 9 4 3 6 7 9 9 8 9 10 8 8 7 8 8
6 6 6 6 7 7 10 13 11 9 9 11 12 12 11 10 12 11 12 9 7 7 8 10 9 8 11 10 8 9 8 9 9 10 11 11 11 11 10 10 9 8 8 8 9 9 8 7 6 5 5 6 5 5 5 5 5 5 5 5 5 4 3 3 3 5 6 8 13 11 9 7 12 7 6 7 10 11 10 9 8 7 8 9 8
5 6 7 8 7 9 9 13 8 8 9 10 12 12 11 11 11 11 11 11 10 10 11 11 10 11 10 9 9 7 7 8 8 8 9 10 9 9 9 9 8 9 9 9 8 7 7 6 6 6 6 6 6 6 6 5 5 6 6 5 5 5 7 6 6 4 6 6 6 9 7 8 10 13 5 7 8 9 8 7 8 9 10 10 9
Wind_Direction
230 190 187 197 195 179 178 179 178 175 171 171 167 166 163 164 160 156 153 151 146 141 137 138 136 136 137 137 133 129 128 126 123 121 119 119 118 114 113 108 104 103 106 108 110 108 102 98 94 90 84 80 75 70 65 62 62 65 62 54 51 54 56 53 48 46 48 45 41 54 68 75 80 77 78 77 70 59 51 46 44 36 47 58 62
176 190 181 195 196 182 182 178 179 178 175 174 172 170 168 165 161 158 159 156 151 145 141 140 141 139 145 141 135 131 130 128 123 120 116 111 107 103 103 103 106 104 116 116 111 106 101 94 89 83 79 75 70 66 60 54 48 47 48 46 44 43 45 48 47 41 39 32 31 27 39 71 78 81 81 77 73 68 65 54 57 47 51 68 62
140 171 176 188 195 187 184 180 180 178 181 176 174 172 171 165 163 164 163 161 158 153 147 147 145 145 148 146 141 137 135 130 125 122 118 110 98 90 74 79 96 105 113 119 114 104 94 88 82 76 70 66 62 57 54 50 43 38 38 39 37 35 35 37 33 30 29 28 27 29 29 47 83 83 83 80 78 64 52 60 66 56 59 65 63
149 171 171 184 193 192 185 183 181 180 180 177 175 171 172 165 166 166 163 168 164 160 155 154 154 153 150 153 148 142 139 136 130 127 122 109 91 74 71 75 86 119 120 114 108 104 95 86 77 70 64 58 57 54 48 44 40 35 31 32 33 31 30 28 23 20 24 22 25 40 29 15 47 94 90 86 80 60 44 47 69 68 62 61 59
154 162 172 176 188 194 190 183 181 181 179 178 175 172 174 171 171 170 169 171 170 168 160 161 162 157 156 158 157 150 144 141 140 135 129 116 96 88 81 76 94 120 119 108 102 96 88 81 74 68 62 54 52 50 47 42 38 33 27 27 29 28 27 22 17 10 15 31 26 47 38 23 10 94 104 97 79 67 59 62 62 64 67 63 60
159 160 170 177 181 191 191 183 184 180 180 182 176 172 175 174 174 174 176 175 176 174 168 167 168 162 166 164 164 158 152 149 148 141 131 127 117 107 94 96 117 115 105 107 106 100 92 85 75 67 61 54 49 47 45 41 38 33 29 24 27 28 28 18 12 11 15 39 76 66 40 34 27 34 96 99 94 86 75 68 68 68 60 56 53
159 164 168 176 182 187 189 185 183 182 182 184 178 175 176 176 176 177 179 180 178 180 177 177 172 169 168 169 167 163 159 157 153 145 142 138 128 121 125 139 127 118 114 113 107 91 85 80 75 69 60 54 49 45 41 37 34 30 30 30 29 31 28 19 14 25 33 64 98 84 59 39 27 16 78 94 100 99 92 78 67 65 66 60 55
152 165 173 174 180 188 187 185 184 183 184 180 177 179 181 181 179 180 183 182 186 182 184 180 178 176 170 169 171 168 167 165 159 153 149 143 138 133 139 121 121 123 123 115 97 86 80 82 81 70 61 56 50 45 39 34 31 28 30 32 35 37 39 31 28 32 48 69 88 89 74 46 32 33 55 77 81 85 86 88 79 65 62 65 55
164 172 171 175 180 185 188 186 185 186 185 178 178 180 184 184 182 185 187 189 190 189 188 184 182 181 177 175 173 174 174 173 165 162 155 147 143 146 138 128 128 130 131 121 105 97 87 90 78 74 67 55 49 44 38 33 33 34 37 39 41 50 52 42 43 45 46 57 69 79 80 59 52 49 83 70 81 82 77 65 73 76 68 62 61
166 169 175 174 179 185 186 188 188 188 189 181 181 182 185 186 184 188 189 194 193 194 193 190 186 185 185 182 178 179 182 176 175 166 158 157 152 145 137 137 142 150 142 132 125 96 94 77 75 60 62 57 48 38 36 33 35 42 47 48 53 57 56 51 48 46 52 55 60 71 93 91 63 58 115 90 80 78 74 82 84 83 79 70 62
167 174 175 179 182 185 187 189 189 188 192 187 183 186 188 188 181 187 191 195 197 195 197 194 193 191 190 187 186 191 190 183 178 169 160 162 162 146 144 144 157 161 151 141 132 109 86 87 73 72 66 55 44 36 34 33 35 46 51 58 61 65 68 62 57 50 48 50 52 38 44 70 84 94 109 98 82 77 67 63 80 83 79 71 61
174 174 177 181 183 187 189 190 189 187 192 189 185 189 191 190 182 187 193 196 195 193 199 195 197 197 195 194 195 199 199 178 180 171 163 162 172 156 151 153 156 153 139 126 134 161 178 107 120 72 82 63 52 42 34 31 37 45 50 56 62 65 68 70 72 68 60 53 49 31 23 17 131 116 99 86 84 76 73 71 67 65 61 59 60
178 178 181 179 184 191 191 192 191 189 192 188 189 191 194 192 188 190 197 196 195 193 197 199 198 200 201 202 204 205 199 186 179 169 171 166 172 167 162 161 162 163 104 63 90 88 193 150 96 103 89 71 57 48 38 36 46 48 51 57 60 59 58 55 58 65 62 59 55 37 29 351 317 242 98 90 93 83 73 66 66 60 59 59 62
172 184 182 181 188 194 193 193 192 192 193 189 190 191 194 193 193 194 198 198 196 196 195 197 201 202 201 206 207 205 203 193 179 171 170 167 170 171 166 169 174 172 147 95 76 56 10 102 111 108 98 80 63 56 51 49 56 58 58 63 69 68 67 58 57 59 55 48 42 33 25 350 18 131 103 97 76 69 62 63 61 64 54 52 49
172 182 184 181 188 195 198 196 195 195 196 191 189 191 193 192 194 195 198 197 197 199 197 198 199 203 204 206 208 207 206 194 183 174 170 163 168 178 167 169 179 175 166 149 115 46 14 113 118 111 98 82 72 67 62 63 66 61 59 64 69 69 69 68 59 56 58 51 34 30 21 354 50 95 90 74 73 64 58 45 50 46 48 57 55
192 179 173 184 189 192 197 204 200 199 199 196 190 192 195 193 194 195 198 197 199 200 199 199 200 204 204 208 207 210 200 194 184 180 177 164 163 173 175 181 184 188 182 160 169 204 180 154 123 109 102 97 91 85 74 74 77 66 63 68 70 71 69 77 62 49 49 45 32 31 15 3 30 121 112 107 79 83 56 55 49 64 72 60 53
175 185 176 187 187 192 197 202 204 203 203 200 194 193 195 195 193 196 198 194 198 202 201 200 200 203 206 209 211 204 198 190 184 186 176 173 170 171 179 189 190 197 208 232 204 210 225 118 118 115 111 110 112 110 99 92 88 77 73 76 81 79 71 79 71 50 48 42 33 19 4 1 27 103 113 105 97 82 138 78 89 68 73 55 48
185 180 195 190 188 191 195 200 202 203 205 204 201 197 198 198 195 198 200 198 195 200 202 203 201 202 207 208 197 183 186 188 193 190 176 179 176 164 168 185 196 205 230 266 274 204 124 120 121 119 117 119 123 126 122 118 109 88 80 82 90 90 84 82 80 57 55 48 29 10 7 4 48 86 108 123 120 116 116 169 119 85 58 59 53
189 194 203 192 197 192 196 199 202 202 204 203 203 206 202 202 199 199 201 201 196 200 201 202 203 204 203 198 182 177 182 187 188 190 179 179 174 161 163 178 193 206 226 243 204 188 121 126 127 122 125 128 134 136 138 126 116 99 91 88 84 88 86 83 81 68 58 48 23 19 347 15 79 98 112 125 133 127 120 82 92 60 13 360 123
241 205 205 213 200 195 195 199 201 204 203 202 205 204 208 207 207 202 202 203 200 201 203 202 201 199 200 189 179 176 180 187 186 194 183 175 168 162 165 168 187 199 207 208 202 121 131 129 133 132 132 136 146 139 135 132 117 100 93 96 92 94 83 85 89 72 57 43 26 7 347 7 124 131 112 123 126 144 145 158 155 155 158 108 172
245 228 207 208 209 204 201 197 202 203 204 203 204 205 204 206 213 210 203 204 204 202 204 203 201 200 191 188 176 173 176 180 186 189 180 175 168 168 171 172 179 184 190 189 191 134 139 142 140 140 140 143 132 123 136 133 107 97 90 89 98 87 96 95 90 87 65 33 23 351 352 28 140 149 145 152 170 184 195 176 177 196 186 203 151
233 230 227 209 206 211 206 204 201 204 202 204 204 201 198 199 205 204 204 203 205 202 201 195 195 195 192 180 174 171 176 186 182 184 174 176 173 175 181 179 177 173 174 177 183 149 150 150 150 146 150 127 104 73 20 40 56 81 89 97 87 103 95 101 100 93 78 35 20 351 6 153 161 160 159 144 142 151 173 159 147 134 163 146 156
260 249 236 211 211 206 205 207 209 203 202 205 206 204 199 191 203 203 200 199 199 198 194 191 180 183 182 184 168 168 180 179 178 180 178 176 175 181 187 185 172 170 167 173 186 161 161 160 152 156 129 104 88 88 61 35 22 64 80 84 106 110 110 101 99 101 99 9 9 354 14 337 185 165 154 161 155 157 154 160 150 148 159 134 173
321 316 291 284 230 212 207 206 203 196 199 206 208 203 201 187 195 200 197 195 194 194 193 187 182 177 175 180 170 168 182 179 170 174 168 169 181 185 190 184 170 164 171 167 171 185 175 164 158 128 96 84 92 88 80 28 17 38 75 84 110 135 132 141 134 133 118 360 313 342 356 5 208 187 173 162 164 164 170 174 183 184 167 190 211
258 274 271 267 297 282 248 218 200 193 195 199 200 206 191 185 195 197 196 192 190 189 188 186 182 175 174 174 166 160 177 185 164 161 173 165 165 181 197 179 149 157 156 157 155 190 135 107 97 101 115 121 124 206 115 194 321 55 76 79 110 123 129 133 140 139 153 246 293 342 340 339 315 221 189 174 168 182 195 192 160 192 184 190 206
266 261 251 248 231 219 237 259 217 205 199 196 197 193 183 196 194 194 189 193 192 186 192 190 184 175 168 168 150 164 176 179 173 176 170 171 171 179 181 159 149 176 148 156 132 121 113 117 126 126 135 123 160 195 192 187 210 228 92 71 111 128 142 149 147 154 209 279 308 322 338 323 311 255 207 183 187 194 196 184 192 175 189 216 212
314 286 282 254 236 236 218 215 220 212 211 201 193 187 197 196 188 185 190 197 188 187 187 192 190 166 160 157 163 174 172 174 185 185 177 171 180 172 172 167 180 180 177 152 155 130 133 134 136 145 134 138 134 354 330 313 293 241 174 162 48 133 159 169 174 186 240 283 304 319 320 315 308 305 232 207 187 206 212 192 205 188 189 204 220
340 336 324 303 270 233 211 204 212 204 204 192 192 196 198 192 191 179 195 194 190 190 185 182 167 169 163 162 175 172 172 174 186 186 180 156 193 173 160 171 174 190 159 149 148 121 121 123 133 130 139 145 174 264 329 320 317 318 218 239 327 306 240 202 214 238 260 283 299 305 303 304 310 310 279 227 200 213 207 215 212 208 192 207 207
353 339 325 318 305 267 214 209 206 204 190 181 198 193 187 194 187 189 196 183 194 207 183 153 155 152 155 162 175 180 176 177 178 186 138 181 160 155 158 184 176 175 146 152 144 150 143 149 156 159 161 157 156 279 324 307 315 315 273 236 259 270 264 268 253 268 278 279 292 292 286 296 295 296 299 263 221 216 217 217 220 224 192 210 226
340 318 328 324 314 304 241 214 206 198 175 173 194 182 185 193 200 200 197 174 203 197 154 156 153 148 152 169 182 179 183 184 181 165 171 183 175 164 166 180 191 174 166 180 181 163 166 151 147 152 162 169 178 219 330 295 304 303 300 247 240 232 218 218 233 246 262 282 281 287 289 287 297 286 276 287 245 225 228 216 224 236 223 215 217
333 345 345 340 327 323 292 253 213 175 164 186 183 185 167 195 195 183 172 194 200 178 182 159 151 163 171 175 177 188 178 181 183 174 179 178 179 176 190 174 185 192 187 193 171 178 167 177 181 177 177 170 200 187 163 278 289 297 283 271 249 232 236 239 238 252 263 264 281 284 296 303 300 306 305 282 272 241 240 227 227 236 236 231 215
352 349 343 333 345 358 339 346 186 154 156 183 171 181 187 183 166 168 188 185 164 181 182 180 183 191 177 174 184 188 175 171 172 178 181 173 179 189 187 181 203 196 191 183 173 169 172 163 141 151 159 163 173 146 117 219 276 266 272 264 272 238 236 229 226 230 242 262 266 281 295 305 315 316 326 309 263 254 246 244 240 234 244 235 220
343 340 337 355 7 357 2 7 60 83 92 108 134 132 117 132 155 180 173 151 169 174 186 191 198 193 190 192 198 197 187 179 189 186 189 189 189 188 190 202 204 195 189 173 158 148 130 132 129 117 126 127 146 233 360 267 267 273 277 259 263 252 244 222 230 223 232 238 249 255 263 271 293 325 340 349 350 306 273 264 252 249 250 241 247
344 346 358 13 2 6 7 19 23 53 66 81 90 92 100 110 115 138 145 155 171 177 198 203 194 193 194 203 202 201 200 199 189 193 185 187 188 195 200 207 207 193 167 156 167 163 160 159 170 146 173 174 201 218 215 257 256 278 283 281 282 258 247 235 230 222 225 234 232 232 232 230 234 245 282 325 337 340 293 261 264 261 262 269 273
0 6 9 357 12 16 14 31 27 38 34 32 61 88 101 109 123 123 115 146 158 184 188 188 193 207 199 208 204 199 199 196 195 182 189 186 188 200 203 214 189 167 172 181 167 169 165 182 160 179 171 201 211 224 210 236 254 263 262 277 272 281 280 261 266 259 250 248 249 246 240 231 223 220 220 219 258 273 305 308 261 270 296 288 284
11 2 4 8 20 19 17 32 28 34 38 45 50 50 52 54 58 57 61 51 45 29 19 3 349 344 263 229 223 204 209 208 201 191 180 195 195 203 215 191 177 171 179 166 159 177 180 172 187 170 180 228 208 250 211 232 232 251 273 295 290 303 295 298 290 283 269 288 268 277 273 263 251 232 225 228 230 245 256 271 289 300 317 299 285
10 13 13 14 22 16 20 25 24 23 27 37 52 58 60 61 58 61 63 57 47 39 33 30 36 33 26 10 354 338 319 274 218 199 196 200 206 211 209 183 169 179 176 172 185 181 171 175 185 205 197 201 202 232 238 230 240 248 274 276 271 298 295 290 284 272 295 271 271 270 270 268 276 279 272 260 262 275 290 288 293 311 314 309 291
19 19 19 23 22 18 22 25 22 21 27 29 35 51 60 63 60 58 60 61 57 53 52 49 39 32 29 25 22 27 25 12 2 345 315 299 243 220 162 165 168 170 173 174 191 145 168 174 195 210 204 185 204 216 234 232 232 250 261 260 272 285 264 278 274 279 274 267 259 254 249 275 286 272 266 260 258 268 269 271 278 290 306 304 286
24 20 23 24 26 22 23 25 23 16 21 29 30 44 47 56 60 51 46 45 47 50 51 57 49 48 41 36 38 37 28 26 23 22 16 7 360 356 353 348 184 168 159 156 134 145 159 192 200 202 215 224 211 218 225 205 234 254 267 282 310 278 269 256 261 270 272 256 258 259 279 266 263 260 261 259 260 250 243 255 270 281 283 290 286
29 23 26 28 26 24 22 30 22 12 22 33 31 36 49 46 47 42 43 31 35 40 35 43 38 42 36 40 44 43 36 32 28 33 42 30 24 19 28 28 15 8 90 172 191 194 200 190 213 189 187 239 31 156 146 140 144 323 302 301 264 248 255 245 258 260 263 263 261 282 263 257 247 253 254 256 259 253 248 248 245 245 255 266 273
34 27 32 28 27 23 28 28 11 19 29 29 33 35 33 38 49 51 55 39 39 41 40 30 36 34 31 31 33 36 34 33 31 35 33 33 37 38 49 43 34 23 11 359 356 347 349 322 153 157 179 192 243 122 109 116 98 308 307 276 287 260 257 258 260 258 247 242 264 268 258 255 249 248 248 254 254 256 253 248 243 245 248 254 267
24 31 32 27 25 25 33 24 19 26 29 28 37 49 40 48 75 59 69 46 37 35 29 25 25 31 32 31 30 26 31 33 27 27 31 31 32 32 36 35 47 60 59 33 30 27 21 14 16 355 189 197 228 141 184 132 346 227 275 322 322 300 251 228 243 246 239 234 228 230 241 243 255 247 255 250 253 250 249 247 249 247 244 244 250
38 38 35 36 28 30 29 30 27 29 25 21 32 44 49 55 68 60 60 75 53 52 52 36 31 34 34 33 30 29 30 34 30 29 32 24 25 27 22 20 32 27 22 23 31 37 57 40 9 338 348 2 5 151 187 210 230 72 105 5 305 343 332 330 279 258 246 231 224 234 235 238 243 239 236 247 250 247 248 248 252 249 249 245 247
38 34 30 33 32 30 27 29 31 32 28 21 27 27 53 68 70 76 71 75 67 37 42 35 27 27 27 26 30 26 29 33 29 30 31 31 27 24 17 21 21 25 24 14 17 9 31 22 22 304 40 314 305 281 212 247 147 146 288 228 252 45 316 296 300 289 240 228 221 234 227 234 243 249 236 241 245 249 250 246 247 246 248 246 243
36 35 30 29 31 29 27 30 33 32 31 27 27 31 40 38 37 53 53 50 37 35 34 25 21 20 24 23 18 22 27 32 29 30 30 28 29 25 22 17 19 12 16 17 12 0 355 265 186 219 221 246 285 280 239 225 245 258 204 110 310 285 234 268 337 279 347 273 250 242 250 244 250 247 244 254 260 251 248 251 249 251 250 245 242
38 28 33 35 33 34 33 33 36 34 29 26 27 45 52 53 45 43 40 44 44 30 30 20 13 18 11 1 22 24 24 29 29 29 29 28 28 25 24 24 21 14 11 9 6 9 7 356 347 324 294 249 258 298 296 224 232 248 263 272 189 269 297 265 5 290 330 227 269 281 245 251 257 258 250 258 254 252 243 250 244 247 242 243 243
29 22 38 40 41 41 41 44 45 42 35 35 33 44 56 56 61 65 62 56 61 43 38 37 41 27 28 26 18 22 24 25 24 27 25 26 29 27 27 28 26 20 11 20 17 8 356 1 352 357 307 320 327 281 279 279 243 256 248 249 255 223 141 303 266 342 296 319 312 266 263 244 236 234 242 243 244 244 244 235 243 240 240 238 242
16 31 44 40 41 40 46 49 50 49 43 44 49 46 60 58 62 62 59 58 58 55 35 37 41 39 41 30 25 23 22 24 23 21 23 24 23 25 25 28 29 23 20 26 20 6 7 3 5 358 349 340 322 283 286 299 277 290 236 255 258 249 217 259 225 245 278 295 289 306 253 261 248 239 240 248 244 238 244 236 239 240 238 237 233
27 36 39 38 42 44 52 55 51 49 43 49 57 53 61 63 66 64 64 52 59 57 54 47 44 36 46 33 33 26 25 24 24 21 19 20 22 22 22 26 25 20 20 20 19 19 19 11 6 3 1 346 335 308 305 292 298 280 301 290 268 265 258 239 249 216 257 274 279 276 281 316 255 249 249 240 248 243 236 240 234 236 236 239 229
26 33 39 44 48 50 53 56 49 47 46 51 57 57 57 61 62 60 66 57 49 50 51 44 39 33 44 35 30 30 25 25 22 22 20 18 19 19 23 24 22 18 21 17 15 15 11 9 8 360 354 353 341 341 318 304 298 297 283 295 297 305 303 281 222 238 253 226 264 276 284 283 283 260 224 244 245 241 240 240 240 235 237 238 234
30 39 42 42 45 50 55 60 50 51 50 55 58 59 57 56 62 60 61 58 48 49 47 39 32 34 36 28 27 22 26 26 20 21 24 15 15 19 20 20 21 20 18 17 15 8 5 0 356 3 7 3 347 343 337 323 312 308 301 286 278 270 269 272 274 236 240 267 275 269 265 249 251 275 249 243 243 246 239 231 235 239 238 239 239